Starlink 30969

operational
NORAD ID: 58438 Int'l Des: 2023-183 Owner: SPXS Country: US Constellation: starlink
LEOCIRCULAR

About Starlink 30969

Description loading...

Live Position

Loading 3D Globe...

Upcoming Passes

Altitude History

Altitude vs Time

uPlot chart will show altitude changes over time

Two-Line Element Set

1 58438U 23183B 25350.73275955 .00000908 00000-0 82278-4 0 9991
2 58438 43.0028 134.2375 0001255 272.1901 87.8798 15.02540530114230
Epoch: Dec 16, 2025 • Age: 11 hours

Current Status

Altitude 558.3 km
Velocity 7.58 km/s
Sub-Earth Point 7.47°N, 18.38°W
Launch Date Nov 28, 2023
Age 2 years
Type internet

Technical Details

Classification Payload
Mass 730.00 kg
Dry Mass 700.00 kg
Total Mass 730.00 kg
Length 0.30 m
Diameter 4.10 m
Span 29.00 m
Shape Box + pan
Manufacturer SPXS
Bus Type Starlink V2M
Phase Status In Orbit
Owner/State SPXS/US

Large Constellations

Loading constellations...